Location: Shannon
(40.5500°S, 175.4167°E)
Time: 11:39:47
(UTC+00:00)

Cosmos 2297 Rocket - Pass Details

Date: 17 November 2025
Orbit: 837 x 844 km, 71.0° (Epoch: 09 December)

Event Time Altitude Azimuth Distance (km) Brightness Sun altitude
Exits shadow 12:35:51 59° 110° (ESE) 981 2.5 -29.9°
Drops below altitude 10° 12:40:45 10° 151° (SSE) 2,487 5.5 -29.7°
Sets 12:43:14 0° 153° (SSE) 3,428 6.5 -29.6°
